User: anonymous
Location: Plum
(40.5000°N, 79.7500°W)
Time: 07:16:12
(UTC-04:00)
Language:

MOZ.5/SAFIR/RUBIN 5/SL-8 - Orbit

View from above orbital plane
View from above orbital plane
View from above satellite
View from above satellite

Ground track
Ground track

The orbit data is extracted from the following two-line orbital elements,

1 28898U 05043G   14243.50626184  .00000263  00000-0  64309-4 0  9046
2 28898 097.8372 068.9198 0020938 155.9693 257.0221 14.59522354470914
Epoch (UTC): 31 August 2014 12:09:01
Eccentricity: 0.0020938
inclination: 97.8372°
perigee height: 680 km
apogee height: 709 km
right ascension of ascending node: 68.9198°
argument of perigee: 155.9693°
revolutions per day: 14.59522354
mean anomaly at epoch: 257.0221°
orbit number at epoch: 47091

The dashed part of the orbit path shows where the satellite is in the earth's shadow,  

DLR